Location: Dammartin
(48.9032°N, 1.6195°E)
Time: 03:31:12
(UTC+00:00)

Envisat - Visible Passes

Search period start: 29 May 2023 00:00
Search period end: 08 June 2023 00:00
Orbit: 763 x 765 km, 98.2° (Epoch: 28 May)

Date Brightness Start Highest point End Pass type
(mag) Time Alt. Az. Time Alt. Az. Time Alt. Az.
29 May 5.7 02:19:00 10° ENE 02:21:00 12° E 02:23:00 10° ESE visible
31 May 5.4 02:42:21 10° NE 02:46:04 20° E 02:49:46 10° SE visible
02 Jun 4.7 03:06:29 10° NNE 03:11:02 32° E 03:15:33 10° SSE visible
03 Jun 5.5 02:30:25 10° NE 02:33:29 16° E 02:36:33 10° SE visible
05 Jun 5.0 02:54:17 10° NE 02:58:30 26° E 03:02:41 10° SSE visible
06 Jun 5.7 02:18:48 10° ENE 02:20:53 12° E 02:22:58 10° ESE visible
